Hourly Weather Bolshie Sloveni

Today, 19 June, Saturday

Time Temperature Precipitation Wind Pressure Humidity
00:00 +16°C° 0 mm 2 mps 751 mmHg 88%
01:00 +16°C° 0 mm 2 mps 751 mmHg 90%
02:00 +14°C° 0 mm 3 mps 751 mmHg 91%
03:00 +16°C° 0 mm 2 mps 751 mmHg 91%
04:00 +16°C° 0 mm 2 mps 751 mmHg 92%
05:00 +17°C° 0 mm 2 mps 751 mmHg 92%
06:00 +18°C° 0 mm 2 mps 751 mmHg 87%
07:00 +20°C° 0 mm 2 mps 751 mmHg 82%
08:00 +21°C° 0 mm 3 mps 751 mmHg 77%
09:00 +22°C° 0 mm 3 mps 751 mmHg 72%
10:00 +24°C° 0 mm 3 mps 751 mmHg 68%
11:00 +25°C° 0 mm 4 mps 751 mmHg 63%
12:00 +26°C° 0 mm 4 mps 751 mmHg 62%
13:00 +26°C° 0 mm 4 mps 750 mmHg 61%
14:00 +27°C° 0 mm 4 mps 750 mmHg 60%
15:00 +27°C° 0 mm 3 mps 750 mmHg 63%
16:00 +27°C° 0 mm 3 mps 750 mmHg 65%
17:00 +27°C° 0 mm 2 mps 749 mmHg 68%
18:00 +25°C° 0 mm 3 mps 749 mmHg 74%
19:00 +24°C° 0 mm 3 mps 749 mmHg 79%
20:00 +22°C° 0 mm 3 mps 749 mmHg 85%
21:00 +21°C° 0 mm 3 mps 749 mmHg 87%
22:00 +20°C° 0 mm 3 mps 749 mmHg 89%
23:00 +19°C° 0 mm 3 mps 749 mmHg 91%

Tomorrow, 20 June, Sunday

Time Temperature Precipitation Wind Pressure Humidity
00:00 +19°C° 0 mm 3 mps 749 mmHg 92%
01:00 +19°C° 0 mm 3 mps 749 mmHg 93%
02:00 +18°C° 0 mm 3 mps 749 mmHg 94%
03:00 +19°C° 0 mm 2 mps 749 mmHg 94%
04:00 +19°C° 0 mm 2 mps 749 mmHg 94%
05:00 +19°C° 0 mm 2 mps 749 mmHg 94%
06:00 +20°C° 0 mm 2 mps 749 mmHg 89%
07:00 +22°C° 0 mm 3 mps 749 mmHg 84%
08:00 +24°C° 0 mm 3 mps 749 mmHg 79%
09:00 +25°C° 0 mm 4 mps 749 mmHg 74%
10:00 +26°C° 0 mm 4 mps 749 mmHg 70%
11:00 +27°C° 0 mm 4 mps 749 mmHg 65%
12:00 +27°C° 0 mm 4 mps 749 mmHg 63%
13:00 +27°C° 0 mm 4 mps 748 mmHg 61%
14:00 +28°C° 0 mm 4 mps 748 mmHg 59%
15:00 +27°C° 0 mm 4 mps 748 mmHg 63%
16:00 +27°C° 0 mm 3 mps 748 mmHg 67%
17:00 +26°C° 0 mm 3 mps 748 mmHg 71%
18:00 +25°C° 0 mm 3 mps 747 mmHg 75%
19:00 +24°C° 0 mm 3 mps 747 mmHg 79%
20:00 +23°C° 0 mm 2 mps 747 mmHg 83%
21:00 +21°C° 0 mm 2 mps 747 mmHg 84%
22:00 +20°C° 0 mm 2 mps 747 mmHg 86%
23:00 +20°C° 0 mm 2 mps 747 mmHg 87%

Day after tomorrow, 21 June, Monday

Time Temperature Precipitation Wind Pressure Humidity
00:00 +19°C° 0 mm 3 mps 747 mmHg 88%
01:00 +19°C° 0 mm 3 mps 747 mmHg 89%
02:00 +19°C° 0 mm 3 mps 747 mmHg 90%
03:00 +19°C° 0 mm 3 mps 747 mmHg 90%
04:00 +19°C° 0 mm 3 mps 746 mmHg 90%
05:00 +19°C° 0 mm 3 mps 746 mmHg 91%
06:00 +20°C° 0 mm 3 mps 746 mmHg 86%
07:00 +21°C° 0 mm 4 mps 746 mmHg 81%
08:00 +22°C° 0 mm 5 mps 746 mmHg 76%
09:00 +25°C° 0 mm 5 mps 746 mmHg 71%
10:00 +26°C° 0 mm 5 mps 746 mmHg 66%
11:00 +27°C° 0 mm 5 mps 746 mmHg 62%
12:00 +28°C° 0 mm 5 mps 746 mmHg 61%
13:00 +28°C° 0 mm 5 mps 745 mmHg 60%
14:00 +29°C° 0 mm 5 mps 745 mmHg 59%
15:00 +29°C° 0 mm 5 mps 745 mmHg 62%
16:00 +29°C° 0 mm 5 mps 745 mmHg 66%
17:00 +29°C° 0 mm 5 mps 745 mmHg 69%
18:00 +27°C° 0 mm 4 mps 745 mmHg 75%
19:00 +26°C° 0 mm 4 mps 745 mmHg 80%
20:00 +23°C° 0 mm 4 mps 744 mmHg 86%
21:00 +22°C° 0 mm 4 mps 745 mmHg 87%
22:00 +22°C° 0 mm 4 mps 745 mmHg 88%
23:00 +21°C° 0 mm 4 mps 745 mmHg 89%

22 June, Tuesday

Time Temperature Precipitation Wind Pressure Humidity
00:00 +20°C° 0 mm 4 mps 745 mmHg 91%
01:00 +20°C° 0 mm 4 mps 745 mmHg 94%
02:00 +19°C° 0 mm 3 mps 745 mmHg 96%
03:00 +19°C° 0 mm 3 mps 745 mmHg 95%
04:00 +19°C° 0 mm 3 mps 745 mmHg 95%
05:00 +20°C° 0 mm 3 mps 745 mmHg 94%
06:00 +21°C° 0 mm 4 mps 745 mmHg 89%
07:00 +23°C° 0 mm 4 mps 745 mmHg 83%
08:00 +25°C° 0 mm 4 mps 745 mmHg 78%
09:00 +26°C° 0 mm 4 mps 745 mmHg 73%
10:00 +27°C° 0 mm 4 mps 745 mmHg 69%
11:00 +29°C° 0 mm 4 mps 745 mmHg 64%
12:00 +29°C° 0 mm 5 mps 745 mmHg 63%
13:00 +30°C° 0 mm 5 mps 745 mmHg 61%
14:00 +30°C° 0 mm 5 mps 745 mmHg 59%
15:00 +30°C° 0 mm 4 mps 745 mmHg 62%
16:00 +30°C° 0 mm 4 mps 745 mmHg 65%
17:00 +29°C° 0 mm 4 mps 745 mmHg 68%
18:00 +28°C° 0 mm 4 mps 745 mmHg 73%
19:00 +26°C° 0 mm 3 mps 745 mmHg 79%
20:00 +25°C° 0 mm 3 mps 745 mmHg 84%
21:00 +24°C° 0 mm 3 mps 745 mmHg 86%
22:00 +21°C° 0 mm 3 mps 745 mmHg 89%
23:00 +20°C° 0 mm 3 mps 746 mmHg 91%

23 June, Wednesday

Time Temperature Precipitation Wind Pressure Humidity
00:00 +20°C° 0 mm 3 mps 746 mmHg 92%
01:00 +19°C° 0 mm 3 mps 746 mmHg 92%
02:00 +19°C° 0 mm 3 mps 746 mmHg 93%
03:00 +19°C° 0 mm 3 mps 746 mmHg 93%
04:00 +19°C° 0 mm 3 mps 746 mmHg 93%
05:00 +20°C° 0 mm 3 mps 746 mmHg 93%
06:00 +22°C° 0 mm 3 mps 746 mmHg 88%
07:00 +24°C° 0 mm 3 mps 746 mmHg 82%
08:00 +26°C° 0 mm 4 mps 746 mmHg 76%
09:00 +28°C° 0 mm 4 mps 746 mmHg 72%
10:00 +29°C° 0 mm 4 mps 746 mmHg 67%
11:00 +30°C° 0 mm 4 mps 747 mmHg 62%
12:00 +32°C° 0 mm 5 mps 746 mmHg 60%
13:00 +32°C° 0 mm 5 mps 746 mmHg 58%
14:00 +33°C° 0 mm 5 mps 746 mmHg 56%
15:00 +33°C° 0 mm 4 mps 746 mmHg 59%
16:00 +32°C° 0 mm 4 mps 746 mmHg 62%
17:00 +32°C° 0 mm 4 mps 746 mmHg 65%
18:00 +30°C° 0 mm 4 mps 746 mmHg 71%
19:00 +28°C° 0 mm 3 mps 746 mmHg 77%
20:00 +26°C° 0 mm 3 mps 746 mmHg 83%
21:00 +26°C° 0 mm 3 mps 746 mmHg 86%
22:00 +25°C° 0 mm 3 mps 746 mmHg 89%
23:00 +24°C° 0 mm 3 mps 746 mmHg 92%

24 June, Thursday

Time Temperature Precipitation Wind Pressure Humidity
00:00 +22°C° 0 mm 3 mps 746 mmHg 93%
01:00 +22°C° 0 mm 3 mps 746 mmHg 94%
02:00 +21°C° 0 mm 3 mps 746 mmHg 94%
03:00 +21°C° 0 mm 3 mps 746 mmHg 94%
04:00 +21°C° 0 mm 3 mps 746 mmHg 93%
05:00 +21°C° 0 mm 3 mps 746 mmHg 93%
06:00 +24°C° 0 mm 3 mps 746 mmHg 87%
07:00 +25°C° 0 mm 4 mps 746 mmHg 82%
08:00 +27°C° 0 mm 4 mps 746 mmHg 76%
09:00 +28°C° 0 mm 4 mps 746 mmHg 72%
10:00 +29°C° 0 mm 5 mps 746 mmHg 67%
11:00 +30°C° 0 mm 5 mps 746 mmHg 62%
12:00 +32°C° 0 mm 5 mps 746 mmHg 60%
13:00 +33°C° 0 mm 4 mps 746 mmHg 58%
14:00 +33°C° 0 mm 4 mps 746 mmHg 56%
15:00 +33°C° 0 mm 4 mps 746 mmHg 59%
16:00 +33°C° 0 mm 4 mps 746 mmHg 62%
17:00 +33°C° 0 mm 4 mps 745 mmHg 65%
18:00 +30°C° 0 mm 3 mps 745 mmHg 71%
19:00 +28°C° 0 mm 3 mps 745 mmHg 76%
20:00 +27°C° 0 mm 3 mps 745 mmHg 81%
21:00 +26°C° 0.1 mm 3 mps 745 mmHg 84%
22:00 +25°C° 0.1 mm 3 mps 745 mmHg 87%
23:00 +24°C° 0.1 mm 3 mps 745 mmHg 90%
Show more